Location: ??????????
(48.4699°N, 37.9573°E)
Time: 13:32:35
(UTC+00:00)

ATLAS 5 CENTAUR R/B - Pass Details

Date: 20 January 2021
Orbit: 511 x 1147 km, 63.3° (Epoch: 16 February)

Event Time Altitude Azimuth Distance (km) Brightness Sun altitude
Rises 16:59:57 0° 274° (W) 2,755 6.2 -28.1°
Reaches altitude 10° 17:02:35 10° 292° (WNW) 1,937 4.9 -28.5°
Maximum altitude 17:05:46 20° 340° (NNW) 1,515 3.7 -29.0°
Enters shadow 17:05:58 19° 343° (NNW) 1,523 3.7 -29.0°
